EXPRESS-AM44

Last updated on Tue Sep 16 2025 00:02:46 GMT+0000 (Coordinated Universal Time)

1 33595U 09007A 25258.40045010 -.00000105 00000+0 00000+0 0 9992 2 33595 2.7516 81.7813 0004190 95.1709 310.8159 1.00271647 49537
UTC large
Height (km)
Speed (km/s)
/
Latitude / Longitude
Inclination (degrees)
Orbital Period (minutes)
Azimuth
Elevation
Range (km)
Doppler Factor

Next 0 passes for location: London (51.5072 / 0.1276)

Sorry there are no passes over London.